Location: Lombard
(41.8800°N, 88.0080°W)
Time: 13:57:35
(UTC-06:00)

Transit 4A - Pass Details

Date: 03 December 2023
Orbit: 870 x 973 km, 66.8° (Epoch: 03 March)

Event Time Altitude Azimuth Distance (km) Brightness Sun altitude
Rises 22:11:06 0° 263° (W) 3,663 - -62.6°
Reaches altitude 10° 22:14:41 10° 283° (WNW) 2,713 - -63.1°
Maximum altitude 22:18:44 17° 323° (NW) 2,219 - -63.7°
Drops below altitude 10° 22:22:45 10° 3° (N) 2,692 - -64.3°
Sets 22:26:18 0° 23° (NNE) 3,622 - -64.7°
